Bologna, Italy

2:10 AM CET on March 24, 2017 (GMT +0100)
Borgo Panigale

Weather History for LIPE - August, 2013

Change the Weather History Date:

Wednesday, August 14, 2013

  Actual Average Record
Temperature  
Mean Temperature 72 °F -  
Max Temperature 78 °F 81 °F 100 °F (2003)
Min Temperature 66 °F 62 °F 57 °F (2006)
Cooling Degree Days 7    
Growing Degree Days 22 (Base 50)    
Moisture  
Dew Point 61 °F    
Average Humidity 71    
Maximum Humidity 83    
Minimum Humidity 42    
Precipitation  
Precipitation 0.00 in - - ()
Sea Level Pressure  
Sea Level Pressure 29.99 in    
Wind  
Wind Speed 7 mph ()    
Max Wind Speed 16 mph    
Max Gust Speed -    
Visibility 6.2 miles    
Events      
Averages and records for this station are not official NWS values.
T = Trace of Precipitation, MM = Missing Value Source: Averaged Metar Reports

Daily Weather History Graph

Daily Weather History Graph

Search for Another Location

Airport or City:

Trip Planner

Search our weather history database for the weather conditions in past years. The results will help you decide how hot, cold, wet, or windy it might be!

Date:

Astronomy

Aug. 14, 2013 Rise Set
Actual Time 6:16 AM CEST 8:21 PM CEST
Civil Twilight 5:44 AM CEST 8:53 PM CEST
Nautical Twilight 5:05 AM CEST 9:32 PM CEST
Astronomical Twilight 4:22 AM CEST 10:15 PM CEST
Moon 2:17 PM CEST (8/14) No Moon Set
Length of Visible Light 15h 08m
Length of Day
14h 05m
Waxing Crescent, 50% of the Moon is Illuminated
Aug 14
Waxing Crescent
Aug 14
First Quarter
Aug 21
Full
Aug 28
Last Quarter
Sep 5
New

Hourly Weather History & Observations

Time (CEST) Temp. Dew Point Humidity Pressure Visibility Wind Dir Wind Speed Gust Speed Precip Events Conditions
12:20 AM 78.8 °F 53.6 °F 42% 29.89 in - West 6.9 mph - N/A   Clear
12:50 AM 78.8 °F 53.6 °F 42% 29.89 in - WSW 6.9 mph - N/A   Clear
1:20 AM 78.8 °F 55.4 °F 44% 29.89 in - West 6.9 mph - N/A   Clear
1:50 AM 75.2 °F 60.8 °F 61% 29.89 in - West 6.9 mph - N/A   Clear
2:20 AM 75.2 °F 60.8 °F 61% 29.86 in - West 4.6 mph - N/A   Clear
2:50 AM 73.4 °F 64.4 °F 73% 29.89 in - WNW 9.2 mph - N/A   Clear
3:20 AM 73.4 °F 64.4 °F 73% 29.89 in - WNW 8.1 mph - N/A   Clear
3:50 AM 73.4 °F 64.4 °F 73% 29.89 in - West 5.8 mph - N/A   Clear
4:20 AM 73.4 °F 66.2 °F 78% 29.89 in 6.2 mi West 6.9 mph - N/A   Partly Cloudy
4:50 AM 73.4 °F 66.2 °F 78% 29.89 in 6.2 mi West 5.8 mph - N/A   Mostly Cloudy
5:20 AM 73.4 °F 66.2 °F 78% 29.89 in 6.2 mi West 5.8 mph - N/A   Mostly Cloudy
5:50 AM 71.6 °F 66.2 °F 83% 29.89 in 6.2 mi West 4.6 mph - N/A   Mostly Cloudy
6:20 AM 73.4 °F 66.2 °F 78% 29.89 in 6.2 mi West 6.9 mph - N/A   Mostly Cloudy
6:50 AM 73.4 °F 66.2 °F 78% 29.89 in 6.2 mi West 6.9 mph - N/A   Mostly Cloudy
7:20 AM 73.4 °F 66.2 °F 78% 29.89 in 6.2 mi West 9.2 mph - N/A   Mostly Cloudy
7:50 AM 73.4 °F 64.4 °F 73% 29.92 in 6.2 mi WNW 9.2 mph - N/A   Mostly Cloudy
8:20 AM 75.2 °F 66.2 °F 73% 29.95 in 6.2 mi North 11.5 mph - N/A   Mostly Cloudy
8:50 AM 69.8 °F 60.8 °F 73% 29.98 in 6.2 mi North 16.1 mph - N/A   Mostly Cloudy
9:20 AM 68.0 °F 60.8 °F 78% 29.98 in 6.2 mi NNE 10.4 mph - N/A   Mostly Cloudy
9:50 AM 68.0 °F 62.6 °F 83% 30.01 in 6.2 mi NE 8.1 mph - N/A   Mostly Cloudy
10:20 AM 69.8 °F 62.6 °F 78% 30.01 in 6.2 mi NNE 5.8 mph - N/A   Mostly Cloudy
10:50 AM 69.8 °F 62.6 °F 78% 30.04 in 6.2 mi North 6.9 mph - N/A   Mostly Cloudy
11:20 AM 69.8 °F 62.6 °F 78% 30.04 in 6.2 mi NE 10.4 mph - N/A   Scattered Clouds
11:50 AM 69.8 °F 60.8 °F 73% 30.04 in 6.2 mi ENE 10.4 mph - N/A   Scattered Clouds
12:20 PM 68.0 °F 60.8 °F 78% 30.06 in 6.2 mi NE 10.4 mph - N/A   Light Drizzle
12:50 PM 68.0 °F 62.6 °F 83% 30.06 in 6.2 mi NE 8.1 mph - N/A   Light Drizzle
1:20 PM 69.8 °F 62.6 °F 78% 30.06 in 6.2 mi ENE 5.8 mph - N/A   Mostly Cloudy
1:50 PM 69.8 °F 60.8 °F 73% 30.06 in 6.2 mi East 6.9 mph - N/A   Mostly Cloudy
2:20 PM 71.6 °F 60.8 °F 69% 30.06 in 6.2 mi East 5.8 mph - N/A   Mostly Cloudy
2:50 PM 71.6 °F 60.8 °F 69% 30.06 in 6.2 mi ENE 5.8 mph - N/A   Mostly Cloudy
3:20 PM 75.2 °F 60.8 °F 61% 30.06 in 6.2 mi East 6.9 mph - N/A   Mostly Cloudy
3:50 PM 73.4 °F 60.8 °F 65% 30.06 in 6.2 mi NE 6.9 mph - N/A   Scattered Clouds
4:20 PM 73.4 °F 62.6 °F 69% 30.04 in 6.2 mi NNE 9.2 mph - N/A   Scattered Clouds
4:50 PM 73.4 °F 60.8 °F 65% 30.04 in 6.2 mi NE 8.1 mph - N/A   Scattered Clouds
5:20 PM 73.4 °F 60.8 °F 65% 30.04 in 6.2 mi NE 8.1 mph - N/A   Scattered Clouds
5:50 PM 73.4 °F 60.8 °F 65% 30.04 in 6.2 mi NE 8.1 mph - N/A   Scattered Clouds
6:20 PM 73.4 °F 60.8 °F 65% 30.04 in 6.2 mi NE 9.2 mph - N/A   Scattered Clouds
6:50 PM 73.4 °F 60.8 °F 65% 30.04 in 6.2 mi NE 8.1 mph - N/A   Scattered Clouds
7:20 PM 71.6 °F 60.8 °F 69% 30.04 in 6.2 mi NE 6.9 mph - N/A   Scattered Clouds
7:50 PM 71.6 °F 60.8 °F 69% 30.04 in 6.2 mi NE 6.9 mph - N/A   Scattered Clouds
8:20 PM 69.8 °F 59.0 °F 68% 30.04 in 6.2 mi NE 8.1 mph - N/A   Scattered Clouds
8:50 PM 69.8 °F 59.0 °F 68% 30.06 in 6.2 mi ENE 4.6 mph - N/A   Scattered Clouds
9:50 PM 68.0 °F 59.0 °F 73% 30.06 in - Variable 2.3 mph - N/A   Clear
10:20 PM 68.0 °F 59.0 °F 73% 30.09 in - NNE 3.5 mph - N/A   Clear
10:50 PM 66.2 °F 57.2 °F 73% 30.09 in - Variable 2.3 mph - N/A   Clear
11:20 PM 66.2 °F 57.2 °F 73% 30.09 in - NW 2.3 mph - N/A   Clear
11:50 PM 66.2 °F 57.2 °F 73% 30.09 in - West 2.3 mph - N/A   Clear